Previsão horária em Abertridwr

Hoje, 9 Maio, Domingo

Tempo Temperatura Precipitação Vento Pressão Humidade
00:00 +11°C° 1 mm 7 m/s 735 mmHg 97%
01:00 +10°C° 1.5 mm 6 m/s 735 mmHg 96%
02:00 +10°C° 1.5 mm 6 m/s 734 mmHg 95%
03:00 +9°C° 1.5 mm 6 m/s 734 mmHg 94%
04:00 +9°C° 0.1 mm 5 m/s 734 mmHg 93%
05:00 +9°C° 0.1 mm 5 m/s 734 mmHg 92%
06:00 +9°C° 0.1 mm 5 m/s 734 mmHg 91%
07:00 +9°C° 0 mm 5 m/s 734 mmHg 90%
08:00 +9°C° 0 mm 5 m/s 734 mmHg 89%
09:00 +9°C° 0 mm 5 m/s 734 mmHg 87%
10:00 +10°C° 0 mm 6 m/s 734 mmHg 82%
11:00 +11°C° 0 mm 7 m/s 734 mmHg 77%
12:00 +12°C° 0 mm 7 m/s 734 mmHg 72%
13:00 +12°C° 0.1 mm 7 m/s 734 mmHg 73%
14:00 +12°C° 0.1 mm 7 m/s 734 mmHg 73%
15:00 +13°C° 0.1 mm 8 m/s 734 mmHg 73%
16:00 +12°C° 0.1 mm 7 m/s 734 mmHg 76%
17:00 +11°C° 0.1 mm 7 m/s 734 mmHg 79%
18:00 +11°C° 0.1 mm 7 m/s 734 mmHg 82%
19:00 +10°C° 0 mm 6 m/s 734 mmHg 86%
20:00 +9°C° 0 mm 6 m/s 734 mmHg 89%
21:00 +8°C° 0 mm 5 m/s 734 mmHg 92%
22:00 +8°C° 0 mm 5 m/s 734 mmHg 90%
23:00 +8°C° 0 mm 6 m/s 734 mmHg 88%

Amanhã, 10 Maio, Segunda-feira

Tempo Temperatura Precipitação Vento Pressão Humidade
00:00 +8°C° 0 mm 7 m/s 734 mmHg 86%
01:00 +8°C° 0 mm 7 m/s 734 mmHg 84%
02:00 +9°C° 0 mm 7 m/s 734 mmHg 81%
03:00 +9°C° 0 mm 7 m/s 734 mmHg 78%
04:00 +9°C° 0 mm 7 m/s 734 mmHg 78%
05:00 +9°C° 0 mm 8 m/s 734 mmHg 79%
06:00 +9°C° 0 mm 8 m/s 734 mmHg 79%
07:00 +9°C° 0 mm 8 m/s 734 mmHg 80%
08:00 +9°C° 0 mm 8 m/s 735 mmHg 81%
09:00 +9°C° 0 mm 8 m/s 735 mmHg 82%
10:00 +10°C° 0.3 mm 9 m/s 735 mmHg 82%
11:00 +10°C° 0.3 mm 9 m/s 736 mmHg 81%
12:00 +11°C° 0.3 mm 9 m/s 736 mmHg 81%
13:00 +11°C° 0.3 mm 9 m/s 737 mmHg 80%
14:00 +10°C° 0.3 mm 9 m/s 737 mmHg 79%
15:00 +10°C° 0.3 mm 9 m/s 738 mmHg 78%
16:00 +10°C° 0 mm 8 m/s 739 mmHg 78%
17:00 +9°C° 0 mm 7 m/s 739 mmHg 79%
18:00 +9°C° 0 mm 6 m/s 740 mmHg 79%
19:00 +7°C° 0 mm 4 m/s 740 mmHg 83%
20:00 +7°C° 0 mm 3 m/s 741 mmHg 87%
21:00 +6°C° 0 mm 2 m/s 741 mmHg 91%
22:00 +6°C° 0 mm 2 m/s 741 mmHg 92%
23:00 +6°C° 0 mm 2 m/s 741 mmHg 92%

Depois de amanhã, 11 Maio, Terça-feira

Tempo Temperatura Precipitação Vento Pressão Humidade
00:00 +5°C° 0 mm 2 m/s 742 mmHg 93%
01:00 +5°C° 0.1 mm 2 m/s 742 mmHg 94%
02:00 +5°C° 0.1 mm 2 m/s 742 mmHg 96%
03:00 +5°C° 0.1 mm 2 m/s 741 mmHg 97%
04:00 +6°C° 0 mm 2 m/s 741 mmHg 95%
05:00 +5°C° 0 mm 3 m/s 742 mmHg 94%
06:00 +7°C° 0 mm 3 m/s 742 mmHg 93%
07:00 +8°C° 0 mm 3 m/s 742 mmHg 87%
08:00 +8°C° 0 mm 4 m/s 742 mmHg 81%
09:00 +9°C° 0 mm 5 m/s 742 mmHg 75%
10:00 +10°C° 0.2 mm 5 m/s 742 mmHg 72%
11:00 +11°C° 0.2 mm 6 m/s 742 mmHg 68%
12:00 +11°C° 0.2 mm 7 m/s 742 mmHg 64%
13:00 +11°C° 0.1 mm 7 m/s 741 mmHg 63%
14:00 +11°C° 0.1 mm 7 m/s 741 mmHg 61%
15:00 +11°C° 0.1 mm 8 m/s 741 mmHg 60%
16:00 +11°C° 0.1 mm 7 m/s 741 mmHg 68%
17:00 +10°C° 0.1 mm 7 m/s 741 mmHg 75%
18:00 +9°C° 0.1 mm 6 m/s 741 mmHg 83%
19:00 +9°C° 0.2 mm 6 m/s 741 mmHg 87%
20:00 +8°C° 0.2 mm 6 m/s 742 mmHg 90%
21:00 +8°C° 0.2 mm 6 m/s 742 mmHg 94%
22:00 +8°C° 0.1 mm 6 m/s 742 mmHg 92%
23:00 +8°C° 0.1 mm 6 m/s 742 mmHg 91%

12 Maio, Quarta-feira

Tempo Temperatura Precipitação Vento Pressão Humidade
00:00 +8°C° 0.1 mm 6 m/s 742 mmHg 90%
01:00 +7°C° 0 mm 6 m/s 742 mmHg 91%
02:00 +6°C° 0 mm 5 m/s 742 mmHg 91%
03:00 +6°C° 0 mm 5 m/s 742 mmHg 92%
04:00 +6°C° 0 mm 4 m/s 743 mmHg 92%
05:00 +6°C° 0 mm 4 m/s 743 mmHg 91%
06:00 +6°C° 0 mm 4 m/s 743 mmHg 91%
07:00 +7°C° 0.1 mm 4 m/s 743 mmHg 86%
08:00 +8°C° 0.1 mm 4 m/s 743 mmHg 80%
09:00 +9°C° 0.1 mm 5 m/s 743 mmHg 75%
10:00 +10°C° 0.2 mm 5 m/s 743 mmHg 72%
11:00 +12°C° 0.2 mm 5 m/s 743 mmHg 68%
12:00 +12°C° 0.2 mm 5 m/s 743 mmHg 65%
13:00 +12°C° 0.4 mm 5 m/s 743 mmHg 68%
14:00 +12°C° 0.4 mm 5 m/s 743 mmHg 71%
15:00 +12°C° 0.4 mm 5 m/s 743 mmHg 74%
16:00 +11°C° 0.3 mm 4 m/s 743 mmHg 77%
17:00 +11°C° 0.3 mm 4 m/s 743 mmHg 80%
18:00 +10°C° 0.3 mm 3 m/s 743 mmHg 83%
19:00 +9°C° 0.1 mm 2 m/s 743 mmHg 86%
20:00 +8°C° 0.1 mm 2 m/s 743 mmHg 90%
21:00 +8°C° 0.1 mm 1 m/s 743 mmHg 93%
22:00 +7°C° 0 mm 1 m/s 743 mmHg 93%
23:00 +7°C° 0 mm 1 m/s 743 mmHg 94%

13 Maio, Quinta-feira

Tempo Temperatura Precipitação Vento Pressão Humidade
00:00 +6°C° 0 mm 0 m/s 743 mmHg 94%
01:00 +5°C° 0 mm 0 m/s 743 mmHg 94%
02:00 +5°C° 0 mm 0 m/s 743 mmHg 94%
03:00 +5°C° 0 mm 0 m/s 743 mmHg 95%
04:00 +6°C° 0 mm 0 m/s 743 mmHg 94%
05:00 +6°C° 0 mm 0 m/s 743 mmHg 93%
06:00 +7°C° 0 mm 0 m/s 743 mmHg 92%
07:00 +8°C° 0 mm 0 m/s 744 mmHg 86%
08:00 +10°C° 0 mm 0 m/s 744 mmHg 81%
09:00 +12°C° 0 mm 1 m/s 744 mmHg 75%
10:00 +13°C° 0.2 mm 1 m/s 744 mmHg 72%
11:00 +14°C° 0.2 mm 2 m/s 744 mmHg 69%
12:00 +13°C° 0.2 mm 3 m/s 744 mmHg 67%
13:00 +13°C° 0.3 mm 3 m/s 743 mmHg 68%
14:00 +13°C° 0.3 mm 4 m/s 743 mmHg 69%
15:00 +13°C° 0.3 mm 4 m/s 743 mmHg 70%
16:00 +12°C° 0.4 mm 4 m/s 743 mmHg 74%
17:00 +11°C° 0.4 mm 4 m/s 743 mmHg 78%
18:00 +11°C° 0.4 mm 4 m/s 744 mmHg 82%
19:00 +10°C° 0.7 mm 3 m/s 744 mmHg 85%
20:00 +9°C° 0.7 mm 2 m/s 744 mmHg 89%
21:00 +8°C° 0.7 mm 2 m/s 744 mmHg 92%
22:00 +8°C° 0.4 mm 2 m/s 744 mmHg 93%
23:00 +9°C° 0.4 mm 1 m/s 744 mmHg 93%

14 Maio, Sexta-feira

Tempo Temperatura Precipitação Vento Pressão Humidade
00:00 +9°C° 0.4 mm 1 m/s 744 mmHg 94%
01:00 +9°C° 0.3 mm 1 m/s 743 mmHg 94%
02:00 +9°C° 0.3 mm 1 m/s 743 mmHg 95%
03:00 +9°C° 0.3 mm 1 m/s 743 mmHg 95%
04:00 +9°C° 0.1 mm 1 m/s 743 mmHg 94%
05:00 +9°C° 0.1 mm 1 m/s 744 mmHg 94%
06:00 +9°C° 0.1 mm 1 m/s 744 mmHg 93%
07:00 +10°C° 0.1 mm 1 m/s 744 mmHg 90%
08:00 +10°C° 0.1 mm 1 m/s 744 mmHg 87%
09:00 +11°C° 0.1 mm 1 m/s 744 mmHg 84%
10:00 +12°C° 0.1 mm 1 m/s 744 mmHg 79%
11:00 +13°C° 0.1 mm 1 m/s 745 mmHg 74%
12:00 +13°C° 0.1 mm 1 m/s 745 mmHg 70%
13:00 +13°C° 0.3 mm 1 m/s 745 mmHg 70%
14:00 +14°C° 0.3 mm 1 m/s 745 mmHg 70%
15:00 +14°C° 0.3 mm 1 m/s 745 mmHg 70%
16:00 +13°C° 0.4 mm 1 m/s 745 mmHg 73%
17:00 +13°C° 0.4 mm 1 m/s 745 mmHg 75%
18:00 +13°C° 0.4 mm 1 m/s 745 mmHg 78%
19:00 +12°C° 0.1 mm 1 m/s 746 mmHg 81%
20:00 +10°C° 0.1 mm 1 m/s 746 mmHg 85%
21:00 +9°C° 0.1 mm 1 m/s 746 mmHg 88%
22:00 +8°C° 0 mm 1 m/s 747 mmHg 89%
23:00 +8°C° 0 mm 1 m/s 747 mmHg 90%
Mostrar mais

Necessitamos do seu Consentimento

A Meteoprog e os seus Fornecedores de Serviços podem armazenar e aceder a dados pessoais como cookies, identificadores do dispositivo ou outras tecnologias semelhantes existentes no seu dispositivo e processar estes dados para personalizar conteúdos e anúncios, assim como funcionalidades nas redes sociais e análise de tráfego.

  • Armazenar e/ou aceder a informações no seu dispositivo

    Os cookies, identificadores do dispositivo ou outras informações podem ser armazenados ou acedidos no seu dispositivo, para os fins acima indicados.

  • Anúncios e conteúdos personalizados, medição de anúncios e conteúdos, dados sobre o público-alvo e desenvolvimento de produtos

    Os anúncios e os conteúdos podem ser personalizados com base num perfil. Podem ser adicionados dados adicionais para uma maior personalização dos anúncios e dos conteúdos. A eficácia dos anúncios e dos conteúdos pode ser medida. Podem ser obtidas informações sobre o público que visualizou os anúncios e os conteúdos. Estes dados podem ser usados para desenvolver ou melhorar sistemas, softwares ou a experiência do utilizador.

Ao clicar em "Eu concordo”, permitirá o uso de cookies, identificadores do dispositivo e web beacons mencionados ou outras tecnologias semelhantes. As configurações do navegador do seu dispositivo podem ser alteradas.

Para certos fins, podem ser invocados interesses legítimos ao invés de consentimento. Pode ler mais informação sobre este assunto na nossa Política de Privacidade e Cookies.